Weather History for Jacksonville Craig, FL

Change the Weather History Date:

Monday, January 20, 2014

  Actual Average Record
Temperature  
Mean Temperature 52 °F -  
Max Temperature 68 °F 63 °F 77 °F (1999)
Min Temperature 37 °F 42 °F 32 °F (2003)
Degree Days  
Heating Degree Days 12    
Growing Degree Days 2 (Base 50)    
Moisture  
Dew Point 38 °F    
Average Humidity 73    
Maximum Humidity 93    
Minimum Humidity 27    
Precipitation  
Precipitation 0.00 in - - ()
Sea Level Pressure  
Sea Level Pressure 30.09 in    
Wind  
Wind Speed 1 mph (WSW)    
Max Wind Speed 10 mph    
Max Gust Speed -    
Visibility 5 miles    
Events Fog , Rain    
Averages and records for this station are not official NWS values.
T = Trace of Precipitation, MM = Missing Value Source: NWS Daily Summary

Daily Weather History Graph

Daily Weather History Graph

Search for Another Location

Airport:

Trip Planner

Search our weather history database for the weather conditions in past years. The results will help you decide how hot, cold, wet, or windy it might be!

Date:

Astronomy

Jan. 20, 2014 Rise Set
Actual Time 7:22 AM EST 5:52 PM EST
Civil Twilight 6:56 AM EST 6:17 PM EST
Nautical Twilight 6:27 AM EST 6:47 PM EST
Astronomical Twilight 5:58 AM EST 7:15 PM EST
Moon 10:03 PM EST (1/20) 9:41 AM EST (1/20)
Length of Visible Light 11h 21m
Length of Day
10h 30m
Waning Gibbous, 83% of the Moon is Illuminated
Jan 20
Waning Gibbous
Jan 24
Last Quarter
Jan 30
New
Feb 6
First Quarter
Feb 14
Full

Hourly Weather History & Observations

Time (EST) Temp. Dew Point Humidity Pressure Visibility Wind Dir Wind Speed Gust Speed Precip Events Conditions
12:53 AM 45.0 °F 41.0 °F 86% 30.12 in 10.0 mi Calm Calm - N/A   Clear
1:53 AM 44.1 °F 41.0 °F 89% 30.12 in 1.5 mi Calm Calm - N/A   Clear
2:05 AM 43.0 °F 39.9 °F 89% 30.12 in 0.8 mi Calm Calm - N/A   Clear
2:16 AM 43.0 °F 39.9 °F 89% 30.12 in 1.5 mi Calm Calm - N/A   Clear
2:34 AM 42.1 °F 39.0 °F 89% 30.12 in 2.0 mi Calm Calm - N/A   Partly Cloudy
2:37 AM 42.1 °F 39.0 °F 89% 30.12 in 1.0 mi Calm Calm - N/A   Mist
2:53 AM 43.0 °F 39.9 °F 89% 30.11 in 1.0 mi Calm Calm - N/A   Mist
2:59 AM 42.1 °F 39.0 °F 89% 30.11 in 2.5 mi Calm Calm - N/A   Scattered Clouds
3:04 AM 42.1 °F 39.0 °F 89% 30.11 in 1.2 mi Calm Calm - N/A   Mostly Cloudy
3:07 AM 42.1 °F 39.0 °F 89% 30.11 in 0.5 mi Calm Calm - N/A Fog Fog
3:15 AM 42.1 °F 39.0 °F 89% 30.12 in 0.2 mi Calm Calm - N/A Fog Fog
3:23 AM 42.1 °F 39.0 °F 89% 30.12 in 0.8 mi Calm Calm - 0.00 in Rain Light Rain
3:35 AM 41.0 °F 37.9 °F 89% 30.12 in 0.5 mi Calm Calm - 0.00 in Fog , Rain Light Rain
3:38 AM 41.0 °F 39.0 °F 93% 30.12 in 1.0 mi Calm Calm - 0.00 in Rain Light Rain
3:53 AM 41.0 °F 39.0 °F 93% 30.12 in 1.8 mi Calm Calm - 0.00 in   Scattered Clouds
3:59 AM 41.0 °F 37.9 °F 89% 30.12 in 1.0 mi Calm Calm - N/A   Mist
4:02 AM 39.9 °F 37.9 °F 93% 30.12 in 0.5 mi Calm Calm - N/A Fog Fog
4:29 AM 39.9 °F 37.9 °F 93% 30.12 in 0.2 mi Calm Calm - N/A Fog Fog
4:53 AM 42.1 °F 39.9 °F 92% 30.12 in 0.2 mi Calm Calm - N/A Fog Fog
5:23 AM 42.1 °F 39.0 °F 89% 30.12 in 0.5 mi Calm Calm - N/A Fog Fog
5:53 AM 39.9 °F 37.9 °F 93% 30.12 in 0.2 mi Calm Calm - N/A Fog Fog
6:26 AM 39.9 °F 37.0 °F 89% 30.12 in 0.5 mi Calm Calm - N/A Fog Fog
6:53 AM 39.9 °F 37.0 °F 89% 30.13 in 5.0 mi Calm Calm - N/A   Scattered Clouds
7:53 AM 37.9 °F 36.0 °F 93% 30.13 in 7.0 mi Calm Calm - N/A   Partly Cloudy
8:53 AM 46.9 °F 44.1 °F 90% 30.13 in 10.0 mi SW 3.5 mph - 0.00 in   Clear
9:53 AM 54.0 °F 39.9 °F 59% 30.15 in 10.0 mi West 3.5 mph - N/A   Clear
10:53 AM 59.0 °F 34.0 °F 39% 30.14 in 10.0 mi WSW 8.1 mph - N/A   Clear
11:53 AM 61.0 °F 33.1 °F 35% 30.11 in 10.0 mi WSW 9.2 mph - N/A   Clear
12:53 PM 64.0 °F 34.0 °F 33% 30.07 in 10.0 mi WSW 8.1 mph - N/A   Clear
1:53 PM 66.0 °F 33.1 °F 29% 30.04 in 10.0 mi West 6.9 mph - N/A   Clear
2:53 PM 66.9 °F 32.0 °F 27% 30.01 in 10.0 mi West 9.2 mph - N/A   Clear
3:53 PM 68.0 °F 33.1 °F 27% 30.01 in 10.0 mi SW 10.4 mph - N/A   Clear
4:53 PM 66.0 °F 33.1 °F 29% 30.02 in 10.0 mi WSW 10.4 mph - N/A   Clear
5:53 PM 61.0 °F 36.0 °F 39% 30.02 in 10.0 mi Calm Calm - N/A   Clear
6:53 PM 53.1 °F 41.0 °F 64% 30.01 in 10.0 mi Calm Calm - N/A   Clear
7:53 PM 50.0 °F 42.1 °F 74% 30.02 in 10.0 mi Calm Calm - N/A   Clear
8:53 PM 57.0 °F 37.9 °F 49% 30.03 in 10.0 mi WSW 4.6 mph - N/A   Clear
9:53 PM 54.0 °F 39.0 °F 57% 30.03 in 10.0 mi WSW 4.6 mph - N/A   Clear
10:53 PM 54.0 °F 39.9 °F 59% 30.02 in 10.0 mi WSW 6.9 mph - N/A   Clear
11:53 PM 52.0 °F 41.0 °F 66% 30.01 in 10.0 mi SW 6.9 mph - N/A   Clear